CZ-4 DEB

Satellite information

Favourite Embed

Satellite Type and Status

DEBRISIN ORBIT

Key statistics

Satellite CZ-4 DEB at a glance.

Uptime

9399

Days in orbit

Revolutions

≈ 14.4

Per day

Orbit

SSO

Sun Synchronous Orbit

Inclination

98.7

Latest

Satellite identification and parameters

Extended collection of information and parameters for CZ-4 DEB.

Object identification

Identified? True

Debris? True

Object name: CZ-4 DEB

International designator: 1999-057MD

Object number (NORAD): 26756

Object ID (CCSDS): 26756

Country: PEOPLES REPUBLIC OF CHINA (PRC)

Current information (Y/N): Y

RCS size: SMALL

Orbital parameters

Period: 99.965 minutes

Inclination: 98.7422 deg

SMA: 7134.981 km

Apoapsis: 815.622 km

Periapsis: 698.07 km

RAAN: 222.7807 deg

Eccentricy: 0.0082377

Argument of periapsis: 30.1278 deg

Mean anomaly: 330.461 deg

Mean motion: 14.40500981 rev/day

Mean motion (dot): 0.00000307 rev/day2

B* drag term: 0.00010731 1/REarth

Two-line elements (TLE)

Creation date: July 6, 2025, 6:05 p.m.

Reference frame: TEME

Reference center: EARTH

Epoch: July 6, 2025, 12:52 a.m. UTC

TLE line 0: 0 CZ-4 DEB

TLE line 1: 1 26756U 99057MD 25187.03671920 .00000307 00000-0 10731-3 0 9992

TLE line 2: 2 26756 98.7422 222.7807 0082377 30.1278 330.4610 14.40500981274121

Live tracking on map

Real-time ground track for satellite CZ-4 DEB.

In-orbit conjunctions

A list of the most updated potential collisions computed for object CZ-4 DEB.

Target Orbit TCA Probability of collision Miss distance Type
SL-14 DEB LEO 2025-04-05 01:00:21 0.0003141169 71.0 (m) DEBRIS
CZ-6A DEB LEO 2025-03-05 13:21:20 0.000113236 718.0 (m) DEBRIS
FENGYUN 1C DEB SSO 2024-07-26 14:23:50 0.0001170012 129.0 (m) DEBRIS

Associated space launch

The CBERS (China Brazil Earth Resources Satellite) or ZY 1 (Zi Yuan) satellites are designed for global coverage and include cameras to make optical observations and a data collecting system to gather data on the environment. They are unique systems due to the use of on-board sensors which combine features that are especially designed to resolve the broad range of space and time scales involved in the monitoring and preservation of the ecosystem. They are operated jointly by the China Centre for Resources Satellite Data and Application (CRESDA) and the Brazilian INPE (Instituto Nacional de Pesquisas Espaciais, National Institute of Space Research).

CZ-4 DEB was lifted into orbit during the mission ‘Long March 4B | Zi Yuan 1-1’, on board a Long March 4B space rocket.

The launch took place on Oct. 14, 1999, 3:15 a.m. from Launch Complex 7.

For more information about the launch, click the button.

Launch to space Long March 4B | Zi Yuan 1-1
Long March 4B | Zi Yuan 1-1

Agency: N/A

Status: Launch Successful

Launch date: Oct. 14, 1999, 3:15 a.m. UTC

Rocket: Long March 4B

Launch pad: Launch Complex 7

Location: Taiyuan Satellite Launch Center, People's Republic of China

...

Latest news about this satellite

There are no fresh news available about this satellite. Check back as we update our databases every day.


Newsletter sign-up

Weekly statistics, charts and insights to help you stay on top of the space industry.